AUA57U LIRN-LOWW

Flight info

Callsign AUA57U
Flight time N/A
Altitude 36000
Route BEDPI DCT MOLUX DCT VAPUP DCT NIVES DCT OBUTI OBUTI2W
Aircraft A321/M-SDE3FGHIRWY/LB1

Departure

Time 2026-05-07 18:10
Airport Naples International Airport (LIRN)

Arrival

Time N/A
Airport Vienna International Airport (LOWW)
Time Latitude Longitude Altitude Speed Heading
2026-05-07 17:35 40.87777 14.28007 305 ft 0 kts 141°
2026-05-07 18:02 40.87791 14.27992 304 ft 4 kts 141°
2026-05-07 18:02 40.87813 14.27970 305 ft 4 kts 141°
2026-05-07 18:03 40.87829 14.27952 305 ft 4 kts 155°
2026-05-07 18:03 40.87851 14.27950 305 ft 4 kts 216°
2026-05-07 18:03 40.87863 14.27964 303 ft 4 kts 231°
2026-05-07 18:03 40.87867 14.27971 304 ft 2 kts 231°
2026-05-07 18:06 40.87866 14.27969 305 ft 2 kts 231°
2026-05-07 18:06 40.87853 14.27940 307 ft 4 kts 249°
2026-05-07 18:06 40.87852 14.27918 308 ft 4 kts 271°
2026-05-07 18:07 40.87870 14.27879 309 ft 6 kts 316°
2026-05-07 18:07 40.87901 14.27845 309 ft 2 kts 321°
2026-05-07 18:07 40.87910 14.27835 307 ft 6 kts 321°
2026-05-07 18:07 40.87952 14.27791 305 ft 9 kts 322°
2026-05-07 18:08 40.87993 14.27789 307 ft 2 kts 53°
2026-05-07 18:08 40.87993 14.27790 307 ft 0 kts 53°
2026-05-07 18:09 40.87994 14.27791 303 ft 2 kts 53°
2026-05-07 18:09 40.88066 14.27936 303 ft 53 kts 57°
2026-05-07 18:09 40.88410 14.28663 282 ft 126 kts 58°
2026-05-07 18:09 40.88965 14.29843 329 ft 167 kts 56°
2026-05-07 18:10 40.89537 14.31097 1044 ft 154 kts 57°
2026-05-07 18:10 40.90099 14.32281 1648 ft 150 kts 57°
2026-05-07 18:10 40.90656 14.33442 2196 ft 151 kts 57°
2026-05-07 18:10 40.91213 14.34618 2751 ft 151 kts 57°
2026-05-07 18:11 40.91762 14.35776 3324 ft 150 kts 57°
2026-05-07 18:11 40.92329 14.36969 3748 ft 160 kts 57°
2026-05-07 18:11 40.92953 14.38275 4049 ft 176 kts 58°
2026-05-07 18:11 40.93636 14.39704 4299 ft 193 kts 58°
2026-05-07 18:12 40.94384 14.41268 4528 ft 210 kts 58°
2026-05-07 18:12 40.95200 14.42975 4712 ft 230 kts 58°
2026-05-07 18:12 40.96095 14.44869 4966 ft 251 kts 59°
2026-05-07 18:12 40.96997 14.46834 5810 ft 250 kts 60°
2026-05-07 18:13 40.97895 14.48803 6601 ft 249 kts 60°
2026-05-07 18:13 40.98780 14.50730 7375 ft 248 kts 60°
2026-05-07 18:13 40.99680 14.52666 8138 ft 248 kts 60°